Tracking 19831 objects as of 23-Aug-2019
HD Live streaming from Space Station
objects crossing your sky now

COSMOS 2251 DEB

Track COSMOS 2251 DEB now!
10-day predictions


NORAD ID: 34634
Int'l Code: 1993-036XF
Perigee: 700.1 km
Apogee: 773.3 km
Inclination: 74.1 °
Period: 99.4 minutes
Semi major axis: 7107 km
RCS: 0.0116 m2 (small)
Launch date: June 16, 1993
Source: Commonwealth of Independent States (former USSR) (CIS)
Launch site: PLESETSK MISSILE AND SPACE COMPLEX (PKMTR)

Note: This is SATELLITE DEBRIS
aabbcc
Your satellite tracking list
Your tracking list is empty




NASA's NSSDC Master Catalog

Two Line Element Set (TLE):
1 34634U 93036XF  19234.88491090 +.00000099 +00000-0 +33236-4 0  9998
2 34634 074.0536 041.9056 0051448 013.2064 138.4058 14.48798927553720
Source of the keplerian elements: AFSPC